Location: Indian Hills
(32.9760°N, 85.9450°W)
Time: 16:25:25
(UTC+00:00)

ISS - Visible Passes

Search period start: 23 June 2021 00:00
Search period end: 03 July 2021 00:00
Orbit: 417 x 422 km, 51.6° (Epoch: 22 June)

Date Brightness Start Highest point End Pass type
(mag) Time Alt. Az. Time Alt. Az. Time Alt. Az.
23 Jun -2.7 09:54:36 10° SSW 09:57:44 38° SE 10:00:54 10° ENE visible
24 Jun -1.7 09:08:51 15° SSE 09:10:25 20° SE 09:12:59 10° ENE visible
25 Jun -0.9 08:23:27 11° ESE 08:23:27 11° ESE 08:24:04 10° ESE visible
25 Jun -3.3 09:56:25 11° WSW 09:59:35 52° NW 10:02:53 10° NE visible
26 Jun -3.8 09:10:56 36° SW 09:12:09 80° SE 09:15:31 10° NE visible
27 Jun -2.5 08:25:23 35° ESE 08:25:23 35° ESE 08:27:56 10° ENE visible
27 Jun -1.6 09:59:16 10° W 10:01:41 18° NNW 10:04:06 10° NNE visible
28 Jun -0.7 07:39:47 11° E 07:39:47 11° E 07:40:02 10° ENE visible
28 Jun -2.3 09:12:44 21° WNW 09:14:08 29° NW 09:17:06 10° NNE visible
29 Jun -2.9 08:27:04 47° N 08:27:04 47° N 08:29:55 10° NE visible
30 Jun -1.2 07:41:21 20° NE 07:41:21 20° NE 07:42:33 10° NE visible
30 Jun -1.1 09:14:58 10° NW 09:16:22 12° NNW 09:17:45 10° N visible
01 Jul -1.5 08:28:31 18° NW 08:28:43 18° NNW 08:31:08 10° NNE visible
02 Jul -1.1 07:42:42 20° N 07:42:42 20° N 07:44:08 10° NNE visible
